Terminal Aerodrome Forecast
Issued by NWS

Home | Current Version | Previous Version | Text Only | Print | Product List | Glossary On
Versions: 1 2 3 4 5 6 7 8 9 10 11 12 13 14 15 16 17 18 19 20 21 22 23
000
FTUS46 KMFR 271143
TAFOTH
TAF
KOTH 271143Z 2712/2812 01013KT P6SM OVC005
     FM271400 36010KT 1SM BR OVC003
     FM271700 33013G20KT P6SM BKN006
     FM271900 35018G30KT P6SM SCT010
     FM280300 36011KT 5SM BR OVC008
      AMD NOT SKED=

USA.gov is the U.S. government's official web portal to all federal, state and local government web resources and services.